Home > Weather > Cambridge > Past weeks

Flag for Canada Past Weather in Cambridge, Ontario, Canada — Yesterday and Last 2 Weeks

Now
86 °F

Passing clouds.


Feels Like: 87 °F
Forecast: 60 / 88 °F
Wind: 15 mph from South

Location: Waterloo Well

Current Time: Jun 26, 2016 at 3:09:30 PM

Latest Report: Jun 26, 2016 at 2:00 PM


Visibility: 9 mi

Pressure: 30.02 "Hg

Humidity: 49%

Dew Point: 64 °F

Location of CambridgeLocation

Past Weather in Cambridge — Graph

°F

Cambridge Temperature Yesterday

Maximum temperature yesterday: 86 °F (at 3:00 PM)
Minimum temperature yesterday: 50 °F (at 4:00 AM)
Average temperature yesterday: 69 °F

High & Low Weather Summary for the Past Weeks

 TemperatureHumidityPressure
High90 °F (Jun 20, 4:00 PM)100% (Jun 14, 5:00 AM)30.29 "Hg (Jun 14, 5:00 AM)
Low41 °F (Jun 14, 5:57 AM)23% (Jun 18, 2:00 PM)29.72 "Hg (Jun 16, 1:00 PM)
Average66 °F60%30.00 "Hg
* Reported Jun 11 1:00 PM — Jun 26 1:00 PM, Cambridge, Weather by CustomWeather, © 2016

Note: Actual official high and low records may vary slightly from our data, if they occured in-between our weather recording intervals... More about our weather records

Advertising

Cambridge Weather History for the Previous 24 Hours

Scroll right to see more
 ConditionsComfort  
Time TempWeatherWind HumidityBarometerVisibility
1:00 PM
Sun, Jun 26
86 °FPassing clouds.17 mph46%30.04 "Hg9 mi
12:00 PM86 °FSunny.18 mph43%30.05 "Hg9 mi
11:00 AM86 °FSunny.15 mph40%30.07 "Hg9 mi
10:00 AM81 °FSunny.13 mph48%30.07 "Hg9 mi
9:00 AM77 °FSunny.10 mph54%30.07 "Hg9 mi
8:00 AM70 °FSunny.8 mph69%30.07 "Hg9 mi
7:00 AM61 °FSunny.2 mph83%30.07 "Hg9 mi
6:00 AM57 °FClear.2 mph82%30.07 "Hg9 mi
5:00 AM55 °FClear.2 mph88%30.09 "Hg8 mi
4:00 AM57 °FClear.No wind82%30.09 "Hg9 mi
3:00 AM59 °FClear.No wind77%30.10 "Hg9 mi
2:00 AM59 °FClear.No wind82%30.13 "Hg9 mi
1:00 AM61 °FClear.3 mph72%30.11 "Hg9 mi
12:00 AM61 °FClear.8 mph72%30.10 "Hg9 mi
11:03 PM
Sat, Jun 25
63 °FClear.5 mph68%30.11 "Hg9 mi
10:53 PM61 °FLight rain. Clear.2 mph77%30.12 "Hg9 mi
10:04 PM63 °FLight rain. Sunny.3 mph77%30.12 "Hg9 mi
9:00 PM72 °FSunny.6 mph53%30.11 "Hg9 mi
8:00 PM81 °FSunny.12 mph37%30.11 "Hg9 mi
7:00 PM84 °FSunny.7 mph31%30.11 "Hg9 mi
6:00 PM84 °FSunny.8 mph27%30.11 "Hg9 mi
5:00 PM86 °FSunny.8 mph27%30.14 "Hg9 mi
4:00 PM86 °FSunny.2 mph27%30.13 "Hg9 mi
3:00 PM86 °FSunny.7 mph29%30.14 "Hg9 mi
Weather by CustomWeather, © 2016

See weather overviewHow to use our weather pages